Content
SEND FEEDBACK

Daily
Averages
Monthly
Summary
United States of America

TRUESDALE, MISSOURI


Home > North America > United States > Missouri
Elevation: 843 feet     Latitude: 38 36N     Longitude: 091 12W

WEATHER
 
SELECT A DAY
Number of Records: 190,801;   Date Range: 1/1/95 - 12/21/14
 
SHARE

PRINT THIS DATA

[ ← Previous Day ]
WEATHER ALMANAC - MARCH 6, 2013
[ Next Day → ]
[ °C ]   °F
Weather ElementAverageHighLow
Temperature33.1 °F37 °F (12:53 pm)28 °F (9:53 pm)
Dewpoint22.2 °F25 °F (2:53 pm)21 °F (1:53 am)
Humidity64.5 %75 % (9:53 pm)57 % (4:53 pm)
Barometer30.31 in30.37 in (9:53 am)30.13 in (12:24 am)
Wind Speed14.6 mph27.6 mph (12:24 am)
Wind Gust35.7 mph (1:53 am)
Weather ElementAverage
Visibility10 mi
Wind DirectionWNW (300.6 °)

Weather ElementTotal
Precipitation---
Heating Degree Days32.5 (Base 65)
Averaged from 31 records on March 6, 2013
WEATHER CONDITIONS BREAKOUT
WIND DIRECTION BREAKOUT
WEATHER BY HOUR - MARCH 6, 2013
[ °C ]   °F
Local TimeTemperatureDewpointHumidityBarometerVisibilityWind DirectionWind SpeedGust SpeedPrecipitationEventsConditions
12:24 AM33.8 °F23.0 °F65 %30.13 in10.0 miNW (320°)27.6 mph34.5 mphOvercast
12:53 AM33.1 °F21.9 °F64 %30.16 in10.0 miNW (310°)20.7 mph32.2 mphOvercast
1:53 AM32.0 °F21.0 °F64 %30.18 in10.0 miNNW (330°)20.7 mph35.7 mphOvercast
2:53 AM32.0 °F21.9 °F66 %30.19 in10.0 miNW (320°)21.9 mph27.6 mphOvercast
3:53 AM32.0 °F21.0 °F64 %30.21 in10.0 miNW (320°)21.9 mph28.8 mphOvercast
4:48 AM32.0 °F21.2 °F64 %30.24 in10.0 miNNW (330°)21.9 mph28.8 mphOvercast
4:53 AM32.0 °F21.9 °F66 %30.25 in10.0 miNW (320°)24.2 mph27.6 mphOvercast
5:04 AM32.0 °F21.2 °F64 %30.25 in10.0 miNW (320°)19.6 mphOvercast
5:53 AM30.9 °F21.9 °F69 %30.28 in10.0 miNW (320°)13.8 mphOvercast
6:53 AM30.9 °F21.9 °F69 %30.31 in10.0 miNW (320°)19.6 mph23.0 mphOvercast
7:53 AM30.9 °F21.9 °F69 %30.34 in10.0 miNW (320°)15.0 mph24.2 mphMostly Cloudy
8:08 AM32.0 °F21.2 °F64 %30.33 in10.0 miNW (310°)17.3 mph24.2 mphMostly Cloudy
8:53 AM32.0 °F21.9 °F66 %30.35 in10.0 miNW (310°)16.1 mphMostly Cloudy
9:26 AM33.8 °F21.2 °F60 %30.35 in10.0 miNNW (330°)17.3 mph26.5 mphOvercast
9:53 AM33.1 °F21.9 °F64 %30.37 in10.0 miNW (310°)15.0 mphMostly Cloudy
10:01 AM33.8 °F21.2 °F60 %30.36 in10.0 miNNW (330°)17.3 mph27.6 mphMostly Cloudy
10:28 AM33.8 °F23.0 °F65 %30.36 in10.0 miNNW (330°)15.0 mphScattered Clouds
10:35 AM33.8 °F23.0 °F65 %30.36 in10.0 miNW (310°)16.1 mphMostly Cloudy
10:53 AM36.0 °F24.1 °F62 %30.37 in10.0 miNNW (330°)13.8 mphScattered Clouds
11:53 AM36.0 °F24.1 °F62 %30.37 in10.0 miWNW (300°)11.5 mph18.4 mphOvercast
12:53 PM37.0 °F24.1 °F59 %30.36 in10.0 miWNW (300°)11.5 mph17.3 mphOvercast
1:53 PM37.0 °F24.1 °F59 %30.35 in10.0 miNNW (330°)12.7 mphScattered Clouds
2:53 PM37.0 °F25.0 °F62 %30.35 in10.0 miNW (320°)11.5 mph20.7 mphMostly Cloudy
3:53 PM37.0 °F24.1 °F59 %30.36 in10.0 miNW (310°)12.7 mphMostly Cloudy
4:53 PM37.0 °F23.0 °F57 %30.36 in10.0 miNNW (330°)9.2 mphPartly Cloudy
5:53 PM35.1 °F21.9 °F59 %30.35 in10.0 miNNW (340°)9.2 mphClear
6:53 PM33.1 °F21.9 °F64 %30.36 in10.0 miNNW (330°)8.1 mphClear
7:53 PM30.9 °F21.9 °F69 %30.35 in10.0 miNNW (340°)6.9 mphClear
8:53 PM30.0 °F21.0 °F69 %30.36 in10.0 miNNW (330°)4.6 mphClear
9:53 PM28.0 °F21.0 °F75 %30.37 in10.0 miCalmClear
10:53 PM28.0 °F21.0 °F75 %30.36 in10.0 miCalmClear
Hourly data recorded from KCPS, located miles away from Truesdale, Missouri







STORIES FROM OUR PARTNERS